User: anonymous   Login
Location: Mason Neck State Park
(38.6428°N, 77.1981°W)
Time: 08:43:32
(UTC-05:00)
Language:

Cosmos 1400 Rocket - Orbit

View from above orbital plane
View from above orbital plane
View from above satellite
View from above satellite

Ground track
Ground track

The orbit data is extracted from the following two-line orbital elements,

1 13403U 82079B   16345.55964910  .00000553  00000-0  35428-4 0  9994
2 13403  81.1696 125.3691 0034288 178.4722 181.6613 15.06437249868321
Epoch (UTC): 10 December 2016 13:25:53
Eccentricity: 0.0034288
inclination: 81.1696°
perigee height: 523 km
apogee height: 571 km
right ascension of ascending node: 125.3691°
argument of perigee: 178.4722°
revolutions per day: 15.06437249
mean anomaly at epoch: 181.6613°
orbit number at epoch: 86832

The dashed part of the orbit path shows where the satellite is in the earth's shadow,  

DLR